| time (UTC) | temp F | wind direction | speed MPH | gust MPH | rain 1hr in | rain 24hr in | rain mn in | humidity % | barometer mb |
| 20260906224603 | 67 | 350 | 6.0 | 10.0 | 0.00 | 0.00 | 0.00 | 66 | 1016.0 |
| 20260906223100 | 67 | 312 | 8.0 | 12.0 | 0.00 | 0.00 | 0.00 | 67 | 1015.9 |
| 20260906221557 | 67 | 332 | 6.0 | 11.0 | 0.00 | 0.00 | 0.00 | 66 | 1016.0 |
| 20260906220105 | 67 | 9 | 7.0 | 12.0 | 0.00 | 0.00 | 0.00 | 66 | 1015.9 |
| 20260906214559 | 67 | 360 | 5.0 | 10.0 | 0.00 | 0.00 | 0.00 | 65 | 1015.8 |
| 20260906213102 | 67 | 352 | 8.0 | 12.0 | 0.00 | 0.00 | 0.00 | 67 | 1015.9 |
| 20260906211611 | 66 | 14 | 4.0 | 11.0 | 0.00 | 0.00 | 0.00 | 67 | 1016.1 |
| 20260906210105 | 66 | 5 | 6.0 | 12.0 | 0.00 | 0.00 | 0.00 | 66 | 1016.2 |
| 20260906204639 | 66 | 325 | 5.0 | 11.0 | 0.00 | 0.00 | 0.00 | 66 | 1016.3 |
| 20260906203101 | 66 | 332 | 4.0 | 12.0 | 0.00 | 0.00 | 0.00 | 67 | 1016.5 |
| 20260906201624 | 65 | 327 | 4.0 | 11.0 | 0.00 | 0.00 | 0.00 | 68 | 1016.5 |
| 20260906200114 | 65 | 11 | 4.0 | 9.0 | 0.00 | 0.00 | 0.00 | 68 | 1016.8 |
| 20260906194606 | 65 | 346 | 3.0 | 10.0 | 0.00 | 0.00 | 0.00 | 69 | 1016.8 |
| 20260906193104 | 65 | 31 | 7.0 | 13.0 | 0.00 | 0.00 | 0.00 | 70 | 1016.8 |
| 20260906191605 | 64 | 17 | 9.0 | 15.0 | 0.00 | 0.00 | 0.00 | 72 | 1016.6 |
| 20260906190120 | 63 | 13 | 12.0 | 18.0 | 0.00 | 0.00 | 0.00 | 73 | 1017.0 |
| 20260906184552 | 62 | 55 | 12.0 | 16.0 | 0.00 | 0.00 | 0.00 | 76 | 1016.9 |
| 20260906183103 | 61 | 9 | 13.0 | 21.0 | 0.00 | 0.00 | 0.00 | 77 | 1017.2 |
| 20260906181606 | 60 | 21 | 14.0 | 21.0 | 0.00 | 0.00 | 0.00 | 81 | 1017.2 |
| 20260906180104 | 59 | 29 | 11.0 | 17.0 | 0.00 | 0.00 | 0.00 | 85 | 1017.9 |
| 20260906174613 | 58 | 13 | 8.0 | 14.0 | 0.00 | 0.00 | 0.00 | 91 | 1018.3 |
| 20260906173107 | 58 | 347 | 9.0 | 13.0 | 0.00 | 0.00 | 0.00 | 92 | 1018.5 |
| 20260906171604 | 58 | 323 | 5.0 | 10.0 | 0.00 | 0.00 | 0.00 | 93 | 1018.6 |
| 20260906170115 | 57 | 322 | 6.0 | 10.0 | 0.00 | 0.00 | 0.00 | 93 | 1018.7 |
| 20260906164601 | 57 | 322 | 5.0 | 10.0 | 0.00 | 0.00 | 0.00 | 93 | 1018.6 |
| 20260906163100 | 56 | 328 | 6.0 | 11.0 | 0.00 | 0.00 | 0.00 | 92 | 1018.7 |
| 20260906161606 | 56 | 338 | 7.0 | 11.0 | 0.00 | 0.00 | 0.00 | 91 | 1018.8 |
| 20260906154604 | 59 | 331 | 4.0 | 11.0 | 0.00 | 0.00 | 0.00 | 84 | 1018.9 |
| 20260906153110 | 60 | 352 | 3.0 | 5.0 | 0.00 | 0.00 | 0.00 | 84 | 1018.9 |
| 20260906151603 | 60 | 69 | 0.0 | 3.0 | 0.00 | 0.00 | 0.00 | 84 | 1019.3 |
| 20260906150106 | 60 | 69 | 0.0 | 4.0 | 0.00 | 0.00 | 0.00 | 83 | 1019.6 |
| 20260906144618 | 60 | 53 | 3.0 | 10.0 | 0.00 | 0.00 | 0.00 | 82 | 1019.3 |
| 20260906143107 | 60 | 32 | 7.0 | 15.0 | 0.00 | 0.00 | 0.00 | 82 | 1019.2 |
| 20260906141618 | 61 | 48 | 8.0 | 15.0 | 0.00 | 0.00 | 0.00 | 81 | 1018.8 |
| 20260906140123 | 60 | 37 | 8.0 | 13.0 | 0.00 | 0.00 | 0.00 | 82 | 1018.9 |
| 20260906134624 | 59 | 63 | 6.0 | 10.0 | 0.00 | 0.00 | 0.00 | 84 | 1019.2 |
| 20260906133113 | 58 | 32 | 5.0 | 10.0 | 0.00 | 0.00 | 0.00 | 84 | 1019.0 |
| 20260906131611 | 58 | 5 | 6.0 | 10.0 | 0.00 | 0.00 | 0.00 | 85 | 1018.9 |
| 20260906130122 | 57 | 42 | 6.0 | 11.0 | 0.00 | 0.00 | 0.00 | 86 | 1019.2 |
| 20260906124620 | 57 | 336 | 5.0 | 9.0 | 0.00 | 0.00 | 0.00 | 86 | 1019.6 |
| 20260906123108 | 56 | 9 | 6.0 | 13.0 | 0.00 | 0.00 | 0.00 | 87 | 1019.3 |
| 20260906121620 | 56 | 5 | 7.0 | 11.0 | 0.00 | 0.00 | 0.00 | 87 | 1018.9 |
| 20260906120110 | 56 | 352 | 7.0 | 12.0 | 0.00 | 0.00 | 0.00 | 87 | 1018.9 |
| 20260906114636 | 56 | 5 | 7.0 | 12.0 | 0.00 | 0.00 | 0.00 | 87 | 1018.8 |
| 20260906113104 | 56 | 352 | 10.0 | 14.0 | 0.00 | 0.00 | 0.00 | 87 | 1018.7 |
| 20260906111626 | 55 | 5 | 8.0 | 13.0 | 0.00 | 0.00 | 0.00 | 87 | 1018.7 |
| 20260906110121 | 55 | 352 | 8.0 | 13.0 | 0.00 | 0.00 | 0.00 | 87 | 1018.8 |
| 20260906104605 | 55 | 360 | 8.0 | 15.0 | 0.00 | 0.00 | 0.00 | 87 | 1018.9 |
| 20260906103122 | 55 | 340 | 9.0 | 14.0 | 0.00 | 0.00 | 0.00 | 87 | 1019.1 |
| 20260906101611 | 55 | 350 | 11.0 | 16.0 | 0.00 | 0.00 | 0.00 | 86 | 1019.1 |
| 20260906100121 | 55 | 11 | 11.0 | 16.0 | 0.00 | 0.00 | 0.00 | 86 | 1018.9 |
| 20260906094604 | 56 | 335 | 11.0 | 16.0 | 0.00 | 0.00 | 0.00 | 85 | 1018.9 |
| 20260906093122 | 56 | 329 | 11.0 | 18.0 | 0.00 | 0.00 | 0.00 | 84 | 1018.8 |
| 20260906091607 | 56 | 350 | 11.0 | 20.0 | 0.00 | 0.00 | 0.00 | 84 | 1019.0 |
| 20260906090127 | 56 | 342 | 9.0 | 14.0 | 0.00 | 0.00 | 0.00 | 83 | 1019.3 |
| 20260906084612 | 57 | 349 | 10.0 | 15.0 | 0.00 | 0.00 | 0.00 | 82 | 1019.3 |
| 20260906083103 | 57 | 5 | 11.0 | 16.0 | 0.00 | 0.00 | 0.00 | 81 | 1019.3 |
| 20260906081623 | 57 | 5 | 10.0 | 17.0 | 0.00 | 0.00 | 0.00 | 81 | 1019.7 |
| 20260906080123 | 57 | 360 | 11.0 | 20.0 | 0.00 | 0.00 | 0.00 | 80 | 1019.6 |
| 20260906074607 | 57 | 346 | 11.0 | 19.0 | 0.00 | 0.00 | 0.00 | 79 | 1019.7 |
| 20260906073109 | 58 | 21 | 11.0 | 18.0 | 0.00 | 0.00 | 0.00 | 79 | 1019.7 |
| 20260906071605 | 58 | 15 | 12.0 | 18.0 | 0.00 | 0.00 | 0.00 | 78 | 1019.8 |
| 20260906070138 | 58 | 13 | 13.0 | 18.0 | 0.00 | 0.00 | 0.00 | 77 | 1019.8 |
| 20260906064605 | 59 | 13 | 13.0 | 18.0 | 0.00 | 0.00 | 0.00 | 77 | 1020.1 |
| 20260906063121 | 59 | 345 | 11.0 | 17.0 | 0.00 | 0.00 | 0.00 | 77 | 1020.3 |
| 20260906061545 | 59 | 17 | 13.0 | 18.0 | 0.00 | 0.00 | 0.00 | 77 | 1020.0 |
| 20260906060041 | 59 | 16 | 14.0 | 20.0 | 0.00 | 0.00 | 0.00 | 76 | 1020.0 |
| 20260906054541 | 59 | 13 | 15.0 | 21.0 | 0.00 | 0.00 | 0.00 | 75 | 1020.0 |
| 20260906053045 | 59 | 360 | 14.0 | 22.0 | 0.00 | 0.00 | 0.00 | 74 | 1020.0 |
| 20260906051540 | 60 | 360 | 16.0 | 22.0 | 0.00 | 0.00 | 0.00 | 72 | 1019.7 |
| 20260906050104 | 60 | 15 | 15.0 | 20.0 | 0.00 | 0.00 | 0.00 | 71 | 1019.8 |
| 20260906044539 | 60 | 13 | 12.0 | 20.0 | 0.00 | 0.00 | 0.00 | 69 | 1019.8 |
| 20260906043058 | 61 | 360 | 15.0 | 23.0 | 0.00 | 0.00 | 0.00 | 68 | 1019.4 |
| 20260906041545 | 61 | 10 | 15.0 | 24.0 | 0.00 | 0.00 | 0.00 | 68 | 1018.9 |
| 20260906040110 | 61 | 14 | 15.0 | 24.0 | 0.00 | 0.00 | 0.00 | 68 | 1018.8 |
| 20260906034547 | 61 | 17 | 17.0 | 25.0 | 0.00 | 0.00 | 0.00 | 67 | 1018.9 |
| 20260906033049 | 61 | 340 | 15.0 | 24.0 | 0.00 | 0.00 | 0.00 | 66 | 1018.9 |
| 20260906031544 | 61 | 351 | 15.0 | 21.0 | 0.00 | 0.00 | 0.00 | 65 | 1019.4 |
| 20260906030048 | 61 | 360 | 16.0 | 22.0 | 0.00 | 0.00 | 0.00 | 65 | 1018.4 |
| 20260906024546 | 61 | 360 | 15.0 | 25.0 | 0.00 | 0.00 | 0.00 | 64 | 1017.9 |
| 20260906023058 | 62 | 360 | 13.0 | 23.0 | 0.00 | 0.00 | 0.00 | 64 | 1018.1 |
| 20260906021545 | 63 | 352 | 16.0 | 24.0 | 0.00 | 0.00 | 0.00 | 62 | 1018.0 |
| 20260906020046 | 64 | 352 | 16.0 | 25.0 | 0.00 | 0.00 | 0.00 | 60 | 1018.0 |
| 20260906014555 | 65 | 23 | 14.0 | 21.0 | 0.00 | 0.00 | 0.00 | 57 | 1017.8 |
| 20260906013049 | 66 | 360 | 12.0 | 20.0 | 0.00 | 0.00 | 0.00 | 55 | 1018.0 |
| 20260906011554 | 68 | 352 | 14.0 | 21.0 | 0.00 | 0.00 | 0.00 | 51 | 1018.0 |
| 20260906010046 | 70 | 352 | 13.0 | 19.0 | 0.00 | 0.00 | 0.00 | 47 | 1018.1 |
| 20260906004541 | 73 | 19 | 12.0 | 17.0 | 0.00 | 0.00 | 0.00 | 38 | 1018.1 |
| 20260906003053 | 74 | 15 | 10.0 | 14.0 | 0.00 | 0.00 | 0.00 | 35 | 1018.1 |
| 20260906001546 | 75 | 23 | 10.0 | 15.0 | 0.00 | 0.00 | 0.00 | 34 | 1018.1 |
| 20260906000049 | 76 | 13 | 10.0 | 15.0 | 0.00 | 0.00 | 0.00 | 33 | 1018.0 |
| 20260905234556 | 75 | 30 | 9.0 | 16.0 | 0.00 | 0.00 | 0.00 | 34 | 1018.1 |
| 20260905233051 | 75 | 55 | 7.0 | 22.0 | 0.00 | 0.00 | 0.00 | 33 | 1018.1 |
| 20260905231546 | 76 | 24 | 8.0 | 15.0 | 0.00 | 0.00 | 0.00 | 33 | 1018.1 |
| 20260905230047 | 77 | 5 | 5.0 | 13.0 | 0.00 | 0.00 | 0.00 | 33 | 1018.2 |